Location: Bruch
(44.2051°N, 0.4120°E)
Time: 11:42:50
(UTC+00:00)

Cosmos 1680 Rocket - Pass Details

Date: 29 November 2020
Orbit: 760 x 781 km, 74.1° (Epoch: 26 January)

Event Time Altitude Azimuth Distance (km) Brightness Sun altitude
Exits shadow 06:00:00 14° 314° (NW) 2,053 5.2 -12.6°
Maximum altitude 06:03:40 30° 260° (W) 1,372 4.3 -11.9°
Drops below altitude 10° 06:08:13 10° 200° (SSW) 2,324 6.0 -11.2°
Sets 06:10:50 0° 190° (S) 3,244 6.9 -10.7°
